Terug naar catalogus

STARLINK-4740

ActiefCommunicatieVLEO
NORAD 53871·PAYLOAD·🇺🇸 United States

Gelanceerd Sep 19, 2022 vanaf Cape Canaveral Space Force Station

Loading…

Volgende Passages (komende 24 uur)

TLE

VersSource: CelesTrak SupGP

Epoch: Sep 15, 2026, 02:03 UTC

1 53871C 22114BF  26258.08590278  .00048709  00000+0  14390-2 0  2580
2 53871  53.1574 118.9625 0001415  82.3154  95.2594 15.34368442    12

Volg STARLINK-4740 in realtime met AllMySat

Download on the App Store